• în România
  • Lista ţărilor
  • Pe 7 zile
  • Temperatura apei
  • Hartă satelitară
  • Meteo pe hartă
  • Widget-uri
  • user-avatar
    Intrare

    Meteo pe oră la Abomey

    Astăzi, 20 Iunie, Miercuri

    Timp Temperatura Precipitaţii Vânt Presiune Umiditate
    00:00 +24°C° 0 mm 3 m/s 741 mmHg 90%
    01:00 +24°C° 0 mm 3 m/s 741 mmHg 90%
    02:00 +24°C° 0 mm 3 m/s 741 mmHg 91%
    03:00 +24°C° 0 mm 3 m/s 740 mmHg 91%
    04:00 +24°C° 0 mm 3 m/s 741 mmHg 91%
    05:00 +24°C° 0 mm 3 m/s 741 mmHg 91%
    06:00 +24°C° 0 mm 3 m/s 741 mmHg 91%
    07:00 +26°C° 0 mm 3 m/s 741 mmHg 83%
    08:00 +27°C° 0 mm 4 m/s 741 mmHg 76%
    09:00 +29°C° 0 mm 5 m/s 742 mmHg 68%
    10:00 +30°C° 0 mm 5 m/s 741 mmHg 64%
    11:00 +32°C° 0 mm 5 m/s 741 mmHg 61%
    12:00 +33°C° 0 mm 5 m/s 741 mmHg 58%
    13:00 +32°C° 0 mm 5 m/s 740 mmHg 59%
    14:00 +32°C° 0 mm 5 m/s 740 mmHg 59%
    15:00 +32°C° 0 mm 5 m/s 739 mmHg 60%
    16:00 +30°C° 0 mm 4 m/s 740 mmHg 64%
    17:00 +29°C° 0 mm 4 m/s 740 mmHg 67%
    18:00 +28°C° 0 mm 4 m/s 740 mmHg 70%
    19:00 +27°C° 0 mm 3 m/s 740 mmHg 73%
    20:00 +27°C° 0 mm 3 m/s 741 mmHg 76%
    21:00 +26°C° 0 mm 3 m/s 742 mmHg 79%
    22:00 +26°C° 0 mm 3 m/s 742 mmHg 80%
    23:00 +25°C° 0 mm 3 m/s 742 mmHg 81%

    Mâine, 21 Iunie, Joi

    Timp Temperatura Precipitaţii Vânt Presiune Umiditate
    00:00 +25°C° 0 mm 4 m/s 741 mmHg 83%
    01:00 +25°C° 0 mm 3 m/s 741 mmHg 84%
    02:00 +25°C° 0 mm 3 m/s 741 mmHg 85%
    03:00 +25°C° 0 mm 3 m/s 740 mmHg 86%
    04:00 +24°C° 0,2 mm 2 m/s 741 mmHg 87%
    05:00 +24°C° 0,2 mm 2 m/s 741 mmHg 89%
    06:00 +24°C° 0,2 mm 2 m/s 741 mmHg 90%
    07:00 +25°C° 0 mm 3 m/s 741 mmHg 86%
    08:00 +26°C° 0 mm 3 m/s 742 mmHg 82%
    09:00 +27°C° 0 mm 4 m/s 742 mmHg 78%
    10:00 +28°C° 0,1 mm 4 m/s 742 mmHg 73%
    11:00 +29°C° 0,1 mm 4 m/s 742 mmHg 68%
    12:00 +30°C° 0,1 mm 4 m/s 742 mmHg 62%
    13:00 +30°C° 1 mm 4 m/s 741 mmHg 65%
    14:00 +30°C° 1 mm 4 m/s 740 mmHg 68%
    15:00 +29°C° 1 mm 4 m/s 740 mmHg 70%
    16:00 +28°C° 2 mm 3 m/s 740 mmHg 75%
    17:00 +27°C° 2 mm 3 m/s 740 mmHg 79%
    18:00 +26°C° 2 mm 3 m/s 740 mmHg 84%
    19:00 +26°C° 1 mm 3 m/s 741 mmHg 86%
    20:00 +25°C° 1 mm 3 m/s 742 mmHg 88%
    21:00 +25°C° 1 mm 2 m/s 742 mmHg 90%
    22:00 +24°C° 0,3 mm 2 m/s 742 mmHg 91%
    23:00 +24°C° 0,3 mm 2 m/s 742 mmHg 92%

    Poimâine, 22 Iunie, Vineri

    Timp Temperatura Precipitaţii Vânt Presiune Umiditate
    00:00 +24°C° 0,3 mm 2 m/s 742 mmHg 92%
    01:00 +24°C° 0,1 mm 2 m/s 741 mmHg 93%
    02:00 +24°C° 0,1 mm 2 m/s 741 mmHg 93%
    03:00 +24°C° 0,1 mm 2 m/s 741 mmHg 94%
    04:00 +24°C° 0,1 mm 2 m/s 741 mmHg 94%
    05:00 +24°C° 0,1 mm 2 m/s 741 mmHg 94%
    06:00 +24°C° 0,1 mm 1 m/s 741 mmHg 94%
    07:00 +25°C° 0,1 mm 2 m/s 742 mmHg 89%
    08:00 +26°C° 0,1 mm 3 m/s 742 mmHg 84%
    09:00 +27°C° 0,1 mm 3 m/s 743 mmHg 80%
    10:00 +27°C° 1 mm 3 m/s 742 mmHg 80%
    11:00 +27°C° 1 mm 3 m/s 742 mmHg 80%
    12:00 +28°C° 1 mm 3 m/s 742 mmHg 80%
    13:00 +27°C° 0,7 mm 3 m/s 741 mmHg 80%
    14:00 +27°C° 0,7 mm 4 m/s 741 mmHg 81%
    15:00 +27°C° 0,7 mm 4 m/s 740 mmHg 81%
    16:00 +27°C° 0,2 mm 3 m/s 740 mmHg 83%
    17:00 +26°C° 0,2 mm 3 m/s 740 mmHg 85%
    18:00 +26°C° 0,2 mm 2 m/s 740 mmHg 88%
    19:00 +25°C° 0 mm 2 m/s 741 mmHg 89%
    20:00 +25°C° 0 mm 2 m/s 741 mmHg 91%
    21:00 +24°C° 0 mm 2 m/s 742 mmHg 92%
    22:00 +24°C° 0 mm 2 m/s 742 mmHg 93%
    23:00 +24°C° 0 mm 1 m/s 742 mmHg 94%

    23 Iunie, Sâmbătă

    Timp Temperatura Precipitaţii Vânt Presiune Umiditate
    00:00 +24°C° 0 mm 1 m/s 742 mmHg 95%
    01:00 +23°C° 0 mm 1 m/s 741 mmHg 96%
    02:00 +23°C° 0 mm 1 m/s 741 mmHg 96%
    03:00 +23°C° 0 mm 2 m/s 740 mmHg 97%
    04:00 +23°C° 0 mm 1 m/s 740 mmHg 97%
    05:00 +23°C° 0 mm 1 m/s 740 mmHg 97%
    06:00 +23°C° 0 mm 1 m/s 741 mmHg 97%
    07:00 +25°C° 0,1 mm 1 m/s 741 mmHg 90%
    08:00 +26°C° 0,1 mm 1 m/s 742 mmHg 83%
    09:00 +27°C° 0,1 mm 2 m/s 742 mmHg 76%
    10:00 +28°C° 1,1 mm 2 m/s 742 mmHg 74%
    11:00 +29°C° 1,1 mm 2 m/s 742 mmHg 72%
    12:00 +30°C° 1,1 mm 2 m/s 741 mmHg 69%
    13:00 +29°C° 2,6 mm 2 m/s 740 mmHg 73%
    14:00 +28°C° 2,6 mm 2 m/s 740 mmHg 77%
    15:00 +28°C° 2,6 mm 2 m/s 739 mmHg 81%
    16:00 +27°C° 1 mm 2 m/s 739 mmHg 84%
    17:00 +26°C° 1 mm 2 m/s 740 mmHg 88%
    18:00 +25°C° 1 mm 2 m/s 740 mmHg 91%
    19:00 +25°C° 0,1 mm 2 m/s 740 mmHg 92%
    20:00 +25°C° 0,1 mm 1 m/s 741 mmHg 93%
    21:00 +24°C° 0,1 mm 1 m/s 742 mmHg 94%
    22:00 +24°C° 0,1 mm 2 m/s 741 mmHg 94%
    23:00 +24°C° 0,1 mm 2 m/s 741 mmHg 95%

    24 Iunie, Duminică

    Timp Temperatura Precipitaţii Vânt Presiune Umiditate
    00:00 +24°C° 0,1 mm 2 m/s 741 mmHg 95%
    01:00 +24°C° 0,1 mm 2 m/s 741 mmHg 96%
    02:00 +24°C° 0,1 mm 2 m/s 740 mmHg 96%
    03:00 +24°C° 0,1 mm 1 m/s 740 mmHg 96%
    04:00 +23°C° 0 mm 1 m/s 740 mmHg 96%
    05:00 +23°C° 0 mm 1 m/s 740 mmHg 97%
    06:00 +23°C° 0 mm 1 m/s 741 mmHg 97%
    07:00 +24°C° 0 mm 1 m/s 741 mmHg 92%
    08:00 +25°C° 0 mm 1 m/s 742 mmHg 87%
    09:00 +26°C° 0 mm 1 m/s 742 mmHg 83%
    10:00 +27°C° 0,5 mm 1 m/s 742 mmHg 81%
    11:00 +27°C° 0,5 mm 1 m/s 742 mmHg 80%
    12:00 +27°C° 0,5 mm 1 m/s 742 mmHg 79%
    13:00 +27°C° 0,7 mm 1 m/s 741 mmHg 81%
    14:00 +26°C° 0,7 mm 1 m/s 740 mmHg 84%
    15:00 +26°C° 0,7 mm 1 m/s 739 mmHg 86%
    16:00 +26°C° 0 mm 1 m/s 739 mmHg 87%
    17:00 +26°C° 0 mm 1 m/s 740 mmHg 88%
    18:00 +23°C° 0 mm 0 m/s 740 mmHg 88%
    19:00 +25°C° 0 mm 1 m/s 740 mmHg 90%
    20:00 +24°C° 0 mm 1 m/s 740 mmHg 91%
    21:00 +24°C° 0 mm 1 m/s 741 mmHg 93%
    22:00 +24°C° 0 mm 1 m/s 741 mmHg 93%
    23:00 +23°C° 0 mm 1 m/s 740 mmHg 94%

    25 Iunie, Luni

    Timp Temperatura Precipitaţii Vânt Presiune Umiditate
    00:00 +23°C° 0 mm 1 m/s 740 mmHg 94%
    01:00 +23°C° 0 mm 1 m/s 740 mmHg 95%
    02:00 +23°C° 0 mm 1 m/s 740 mmHg 95%
    03:00 +23°C° 0 mm 1 m/s 739 mmHg 96%
    04:00 +23°C° 0 mm 1 m/s 739 mmHg 96%
    05:00 +23°C° 0 mm 1 m/s 740 mmHg 96%
    06:00 +23°C° 0 mm 1 m/s 740 mmHg 96%
    07:00 +24°C° 0 mm 1 m/s 741 mmHg 89%
    08:00 +26°C° 0 mm 1 m/s 741 mmHg 81%
    09:00 +28°C° 0 mm 2 m/s 742 mmHg 73%
    10:00 +29°C° 0,2 mm 2 m/s 741 mmHg 70%
    11:00 +30°C° 0,2 mm 2 m/s 741 mmHg 66%
    12:00 +31°C° 0,2 mm 2 m/s 740 mmHg 63%
    13:00 +31°C° 0,1 mm 2 m/s 740 mmHg 64%
    14:00 +30°C° 0,1 mm 2 m/s 739 mmHg 65%
    15:00 +30°C° 0,1 mm 3 m/s 738 mmHg 66%
    16:00 +29°C° 0,9 mm 2 m/s 739 mmHg 71%
    17:00 +28°C° 0,9 mm 2 m/s 739 mmHg 76%
    18:00 +27°C° 0,9 mm 2 m/s 739 mmHg 81%
    19:00 +26°C° 0,3 mm 2 m/s 740 mmHg 83%
    20:00 +26°C° 0,3 mm 2 m/s 740 mmHg 85%
    21:00 +25°C° 0,3 mm 3 m/s 741 mmHg 87%
    22:00 +25°C° 0 mm 2 m/s 740 mmHg 88%
    23:00 +24°C° 0 mm 2 m/s 740 mmHg 90%
    Arată mai mult